This is the latest recevied weather packets stored in our database for station/object KB1RMA-13. If no packets are shown the sender has not sent any weather packets the latest 10 day(s).
| Time | Temp. | Humidity | Pressure | Rain* | Wind** | Luminosity | Snow |
|---|---|---|---|---|---|---|---|
| 1777047088 | 7.78° C | 57% | 1010.9 hPa | 0 mm | - | 866 W/m² | - |
| 1777046787 | 7.78° C | 57% | 1011.2 hPa | 0 mm | - | 894 W/m² | - |
| 1777046482 | 8.33° C | 61% | 1011.3 hPa | 0 mm | - | 892 W/m² | - |
| 1777046177 | 8.33° C | 57% | 1011.1 hPa | 0 mm | - | 893 W/m² | - |
| 1777045874 | 7.78° C | 57% | 1011.3 hPa | 0 mm | - | 890 W/m² | - |
| 1777045570 | 7.78° C | 57% | 1011.1 hPa | 0 mm | - | 872 W/m² | - |
| 1777045265 | 8.33° C | 55% | 1011.3 hPa | 0 mm | - | 866 W/m² | - |
| 1777044961 | 7.22° C | 60% | 1011.1 hPa | 0 mm | - | 856 W/m² | - |
| 1777044657 | 7.78° C | 58% | 1011.3 hPa | 0 mm | - | 846 W/m² | - |
| 1777044354 | 7.22° C | 57% | 1011.3 hPa | 0 mm | - | 839 W/m² | - |
| 1777044054 | 8.33° C | 55% | 1011.5 hPa | 0 mm | - | 832 W/m² | - |
| 1777043751 | 7.78° C | 55% | 1011.3 hPa | 0 mm | - | 825 W/m² | - |
| 1777043448 | 7.78° C | 52% | 1011.4 hPa | 0 mm | - | 814 W/m² | - |
| 1777043143 | 8.33° C | 56% | 1011.5 hPa | 0 mm | - | 805 W/m² | - |
| 1777042839 | 8.33° C | 55% | 1011.3 hPa | 0 mm | - | 795 W/m² | - |
| 1777042534 | 8.33° C | 53% | 1011.4 hPa | 0 mm | - | 786 W/m² | - |
| 1777042231 | 8.33° C | 52% | 1011.3 hPa | 0 mm | - | 777 W/m² | - |
| 1777041927 | 9.44° C | 54% | 1011.5 hPa | 0 mm | - | 771 W/m² | - |
| 1777041624 | 8.89° C | 55% | 1011.5 hPa | 0 mm | - | 763 W/m² | - |
| 1777041320 | 8.89° C | 55% | 1011.6 hPa | 0 mm | - | 752 W/m² | - |
| 1777041017 | 8.33° C | 53% | 1011.6 hPa | 0 mm | - | 743 W/m² | - |
| 1777040713 | 9.44° C | 54% | 1011.6 hPa | 0 mm | - | 733 W/m² | - |
| 1777040411 | 9.44° C | 55% | 1011.6 hPa | 0 mm | - | 720 W/m² | - |
| 1777040108 | 8.89° C | 49% | 1011.6 hPa | 0 mm | - | 712 W/m² | - |
| 1777039804 | 8.89° C | 57% | 1011.8 hPa | 0 mm | - | 699 W/m² | - |
* Rain latest hour (hover to see other rain measurements)
** Current wind speed in m/s (hover to see current wind gust speed)